Regional Weather Roundup
Issued by NWS

Home | Current Version | Previous Version | Graphics & Text | Print | Product List | Glossary On
Versions: 1 2 3 4 5 6 7 8 9 10 11 12 13 14 15 16 17 18 19 20 21 22 23 24 25 26 27 28 29 30 31 32 33 34 35 36 37 38 39 40 41 42 43 44 45 46 47 48 49 50
000
ASUS43 KLSX 041107
RWRMO

WEATHER SUMMARY FOR MISSOURI
NATIONAL WEATHER SERVICE SPRINGFIELD MO
600 AM CDT SAT JUL 04 2015

NOTE: "FAIR" INDICATES FEW OR NO CLOUDS BELOW 12,000 FEET WITH NO
       SIGNIFICANT WEATHER AND/OR OBSTRUCTIONS TO VISIBILITY.
       CURRENT SKY AND/OR WEATHER CONDITIONS ARE NOT AVAILABLE FOR
       CHILLICOTHE AND FARMINGTON.

MOZ001>031-035>038-043-044-053-054-041200-
...NORTHERN AND WESTERN MISSOURI...

CITY           SKY/WX    TMP DP  RH WIND       PRES   REMARKS
KANSAS CTY INT PTCLDY    59  57  93 CALM      30.00R FOG
KANSAS C DTWN  CLEAR     64  61  90 NW3       29.99R
LEE`S SUMMIT   CLEAR     60  57  89 CALM      30.00R
ST JOSEPH      PTCLDY    57  56  96 CALM      29.99S
CHILLICOTHE      N/A     59  57  93 CALM      30.00R
KIRKSVILLE     FOG       56  54  93 CALM      30.00R VSB 1

$$
MOZ066>068-077>081-088>096-101>105-041200-
...SOUTHWEST MISSOURI...

CITY           SKY/WX    TMP DP  RH WIND       PRES   REMARKS
SPRINGFIELD    MOCLDY    66  62  87 CALM      29.98R
JOPLIN         MOCLDY    67  66  97 NE3       29.97R FOG

$$
MOZ032>034-039>042-045>050-055>058-069>072-041200-
...CENTRAL MISSOURI...

CITY           SKY/WX    TMP DP  RH WIND       PRES   REMARKS
COLUMBIA       CLEAR     62  59  90 CALM      29.99R
JEFFERSON CITY CLEAR     61  59  93 CALM      29.98R
ROLLA          CLEAR     60  59  96 CALM      29.98R
SEDALIA        CLEAR     62  59  90 CALM      30.00R
WHITEMAN AFB   CLEAR     60  60 100 CALM      29.98R FOG
WARRENSBURG      N/A     59  59 100 CALM      29.99R FOG
OSAGE BEACH    CLEAR     61  57  88 CALM      29.99R

$$
MOZ051-052-059>065-041200-
...EAST CENTRAL MISSOURI...

CITY           SKY/WX    TMP DP  RH WIND       PRES   REMARKS
ST LOUIS INTL  CLEAR     70  64  83 CALM      29.97R HAZE
SPIRIT OF STL  CLEAR     64  63  96 CALM      29.96R FOG
ST CHARLES     CLEAR     66  64  93 CALM      29.96R FOG

$$
MOZ072>076-082>087-097>100-106>115-041200-
...SOUTH CENTRAL AND SOUTHEAST MISSOURI...

CITY           SKY/WX    TMP DP  RH WIND       PRES   REMARKS
CAPE GIRARDEAU CLEAR     69  67  93 NE3       29.94R
FARMINGTON       N/A     63  63 100 S3        30.02R VSB 1/4
POPLAR BLUFF   CLEAR     69  67  93 N6        29.94R FOG
WEST PLAINS    CLEAR     65  62  90 CALM      29.99R FOG

$$



USA.gov is the U.S. government's official web portal to all federal, state and local government web resources and services.